| time (UTC) | temp C | wind direction | speed KPH | gust KPH | rain 1hr cm | rain 24hr cm | rain mn cm | humidity % | barometer mb |
| 20260831022101 | 31 | 153 | 8.0 | 16.1 | 0.00 | 0.00 | 0.00 | 66 | 1014.3 |
| 20260831021601 | 31 | 47 | 3.2 | 16.1 | 0.00 | 0.00 | 0.00 | 66 | 1014.2 |
| 20260831021558 | 31 | 148 | 3.2 | 16.1 | 0.00 | 0.00 | 0.00 | 66 | 1014.4 |
| 20260831021334 | 31 | 109 | 9.7 | 16.1 | 0.00 | 0.00 | 0.00 | 66 | 1014.2 |
| 20260831020838 | 31 | 74 | 8.0 | 17.7 | 0.00 | 0.00 | 0.00 | 66 | 1014.1 |
| 20260831020116 | 31 | 219 | 6.4 | 19.3 | 0.00 | 0.00 | 0.00 | 65 | 1013.9 |
| 20260831020108 | 31 | 330 | 6.4 | 19.3 | 0.00 | 0.00 | 0.00 | 64 | 1014.1 |
| 20260831015603 | 31 | 274 | 9.7 | 19.3 | 0.00 | 0.00 | 0.00 | 64 | 1013.8 |
| 20260831015103 | 32 | 318 | 8.0 | 12.9 | 0.00 | 0.00 | 0.00 | 64 | 1013.8 |
| 20260831014604 | 32 | 260 | 4.8 | 12.9 | 0.00 | 0.00 | 0.00 | 63 | 1014.0 |
| 20260831014602 | 32 | 212 | 4.8 | 12.9 | 0.00 | 0.00 | 0.00 | 64 | 1013.8 |
| 20260831014103 | 32 | 220 | 4.8 | 16.1 | 0.00 | 0.00 | 0.00 | 63 | 1013.8 |
| 20260831013827 | 32 | 335 | 6.4 | 16.1 | 0.00 | 0.00 | 0.00 | 63 | 1013.7 |
| 20260831013556 | 32 | 257 | 8.0 | 16.1 | 0.00 | 0.00 | 0.00 | 62 | 1013.7 |
| 20260831013100 | 32 | 321 | 6.4 | 16.1 | 0.00 | 0.00 | 0.00 | 62 | 1013.8 |
| 20260831012603 | 32 | 236 | 8.0 | 16.1 | 0.00 | 0.00 | 0.00 | 62 | 1013.7 |
| 20260831012102 | 32 | 323 | 9.7 | 16.1 | 0.00 | 0.00 | 0.00 | 61 | 1013.7 |
| 20260831012049 | 33 | 355 | 9.7 | 19.3 | 0.00 | 0.00 | 0.00 | 60 | 1013.7 |
| 20260831011604 | 32 | 169 | 8.0 | 17.7 | 0.00 | 0.00 | 0.00 | 60 | 1013.9 |
| 20260831011102 | 33 | 186 | 9.7 | 19.3 | 0.00 | 0.00 | 0.00 | 59 | 1013.6 |
| 20260831010602 | 33 | 60 | 9.7 | 19.3 | 0.00 | 0.00 | 0.00 | 58 | 1013.7 |
| 20260831010104 | 33 | 355 | 9.7 | 17.7 | 0.00 | 0.00 | 0.00 | 57 | 1013.7 |
| 20260831005602 | 33 | 114 | 11.3 | 17.7 | 0.00 | 0.00 | 0.00 | 57 | 1013.5 |
| 20260831005102 | 33 | 133 | 8.0 | 16.1 | 0.00 | 0.00 | 0.00 | 57 | 1013.3 |
| 20260831004616 | 33 | 340 | 8.0 | 19.3 | 0.00 | 0.00 | 0.00 | 56 | 1013.3 |
| 20260831004601 | 33 | 250 | 9.7 | 19.3 | 0.00 | 0.00 | 0.00 | 57 | 1013.1 |
| 20260831004104 | 34 | 123 | 6.4 | 19.3 | 0.00 | 0.00 | 0.00 | 56 | 1013.0 |
| 20260831003604 | 34 | 111 | 6.4 | 19.3 | 0.00 | 0.00 | 0.00 | 55 | 1012.8 |
| 20260831003107 | 34 | 288 | 8.0 | 17.7 | 0.00 | 0.00 | 0.00 | 53 | 1013.1 |
| 20260831003103 | 34 | 255 | 8.0 | 19.3 | 0.00 | 0.00 | 0.00 | 54 | 1012.9 |
| 20260831002603 | 35 | 200 | 9.7 | 17.7 | 0.00 | 0.00 | 0.00 | 53 | 1012.8 |
| 20260831002102 | 35 | 256 | 8.0 | 16.1 | 0.00 | 0.00 | 0.00 | 53 | 1012.8 |
| 20260831001604 | 35 | 2 | 8.0 | 17.7 | 0.00 | 0.00 | 0.00 | 51 | 1012.9 |
| 20260831001601 | 35 | 210 | 9.7 | 17.7 | 0.00 | 0.00 | 0.00 | 52 | 1012.7 |
| 20260831001340 | 35 | 310 | 8.0 | 17.7 | 0.00 | 0.00 | 0.00 | 51 | 1012.6 |
| 20260831000602 | 35 | 311 | 8.0 | 16.1 | 0.00 | 0.00 | 0.00 | 50 | 1012.5 |
| 20260831000104 | 35 | 56 | 6.4 | 20.9 | 0.00 | 0.00 | 0.00 | 50 | 1012.8 |
| 20260830235602 | 36 | 176 | 9.7 | 20.9 | 0.00 | 0.00 | 0.00 | 50 | 1012.5 |
| 20260830235337 | 36 | 160 | 8.0 | 17.7 | 0.00 | 0.00 | 0.00 | 49 | 1012.6 |
| 20260830234602 | 36 | 201 | 6.4 | 17.7 | 0.00 | 0.00 | 0.00 | 48 | 1012.5 |
| 20260830234103 | 36 | 245 | 3.2 | 17.7 | 0.00 | 0.00 | 0.00 | 47 | 1012.5 |
| 20260830233602 | 36 | 214 | 6.4 | 17.7 | 0.00 | 0.00 | 0.00 | 48 | 1012.4 |
| 20260830233328 | 36 | 264 | 9.7 | 17.7 | 0.00 | 0.00 | 0.00 | 47 | 1012.4 |
| 20260830233108 | 36 | 190 | 9.7 | 20.9 | 0.00 | 0.00 | 0.00 | 47 | 1012.5 |
| 20260830232602 | 36 | 26 | 8.0 | 17.7 | 0.00 | 0.00 | 0.00 | 47 | 1012.3 |
| 20260830232326 | 37 | 184 | 6.4 | 17.7 | 0.00 | 0.00 | 0.00 | 47 | 1012.3 |
| 20260830231603 | 37 | 152 | 4.8 | 17.7 | 0.00 | 0.00 | 0.00 | 45 | 1012.5 |
| 20260830231601 | 37 | 58 | 6.4 | 17.7 | 0.00 | 0.00 | 0.00 | 46 | 1012.4 |
| 20260830231103 | 37 | 32 | 6.4 | 14.5 | 0.00 | 0.00 | 0.00 | 46 | 1012.3 |
| 20260830230604 | 37 | 124 | 4.8 | 16.1 | 0.00 | 0.00 | 0.00 | 46 | 1012.4 |
| 20260830230116 | 37 | 64 | 6.4 | 16.1 | 0.00 | 0.00 | 0.00 | 47 | 1012.3 |
| 20260830230100 | 37 | 304 | 4.8 | 16.1 | 0.00 | 0.00 | 0.00 | 46 | 1012.3 |
| 20260830225604 | 37 | 330 | 6.4 | 16.1 | 0.00 | 0.00 | 0.00 | 46 | 1012.2 |
| 20260830225103 | 37 | 297 | 8.0 | 16.1 | 0.00 | 0.00 | 0.00 | 46 | 1012.2 |
| 20260830224606 | 37 | 288 | 6.4 | 16.1 | 0.00 | 0.00 | 0.00 | 44 | 1012.4 |
| 20260830224603 | 37 | 288 | 8.0 | 14.5 | 0.00 | 0.00 | 0.00 | 44 | 1012.1 |
| 20260830224104 | 38 | 37 | 8.0 | 14.5 | 0.00 | 0.00 | 0.00 | 45 | 1012.1 |
| 20260830223604 | 38 | 130 | 6.4 | 19.3 | 0.00 | 0.00 | 0.00 | 45 | 1012.0 |
| 20260830223104 | 38 | 258 | 9.7 | 20.9 | 0.00 | 0.00 | 0.00 | 43 | 1012.1 |
| 20260830223055 | 37 | 252 | 9.7 | 20.9 | 0.00 | 0.00 | 0.00 | 43 | 1012.3 |
| 20260830222603 | 38 | 191 | 8.0 | 20.9 | 0.00 | 0.00 | 0.00 | 42 | 1011.9 |
| 20260830222326 | 38 | 250 | 9.7 | 17.7 | 0.00 | 0.00 | 0.00 | 42 | 1011.9 |
| 20260830221603 | 38 | 198 | 8.0 | 16.1 | 0.00 | 0.00 | 0.00 | 41 | 1012.2 |
| 20260830221104 | 38 | 39 | 8.0 | 16.1 | 0.00 | 0.00 | 0.00 | 42 | 1012.0 |
| 20260830220604 | 39 | 56 | 6.4 | 12.9 | 0.00 | 0.00 | 0.00 | 41 | 1011.9 |
| 20260830220328 | 39 | 19 | 6.4 | 12.9 | 0.00 | 0.00 | 0.00 | 40 | 1011.9 |
| 20260830220105 | 38 | 173 | 4.8 | 11.3 | 0.00 | 0.00 | 0.00 | 39 | 1012.1 |
| 20260830215606 | 39 | 148 | 3.2 | 14.5 | 0.00 | 0.00 | 0.00 | 40 | 1012.1 |
| 20260830215104 | 38 | 108 | 6.4 | 14.5 | 0.00 | 0.00 | 0.00 | 41 | 1011.9 |
| 20260830214603 | 38 | 41 | 8.0 | 12.9 | 0.00 | 0.00 | 0.00 | 41 | 1012.0 |
| 20260830214553 | 38 | 122 | 6.4 | 14.5 | 0.00 | 0.00 | 0.00 | 40 | 1012.2 |
| 20260830214103 | 38 | 245 | 4.8 | 16.1 | 0.00 | 0.00 | 0.00 | 42 | 1012.1 |
| 20260830213830 | 38 | 113 | 8.0 | 16.1 | 0.00 | 0.00 | 0.00 | 41 | 1012.1 |
| 20260830213105 | 38 | 236 | 6.4 | 17.7 | 0.00 | 0.00 | 0.00 | 41 | 1012.2 |
| 20260830213056 | 38 | 120 | 8.0 | 20.9 | 0.00 | 0.00 | 0.00 | 41 | 1012.3 |
| 20260830212604 | 38 | 194 | 6.4 | 22.5 | 0.00 | 0.00 | 0.00 | 41 | 1012.1 |
| 20260830212105 | 38 | 8 | 3.2 | 22.5 | 0.00 | 0.00 | 0.00 | 42 | 1012.4 |
| 20260830211559 | 38 | 222 | 11.3 | 19.3 | 0.00 | 0.00 | 0.00 | 43 | 1012.3 |
| 20260830211555 | 38 | 257 | 9.7 | 19.3 | 0.00 | 0.00 | 0.00 | 43 | 1012.5 |
| 20260830211055 | 38 | 234 | 8.0 | 17.7 | 0.00 | 0.00 | 0.00 | 43 | 1012.5 |
| 20260830210815 | 38 | 129 | 9.7 | 19.3 | 0.00 | 0.00 | 0.00 | 43 | 1012.6 |
| 20260830210107 | 38 | 342 | 6.4 | 19.3 | 0.00 | 0.00 | 0.00 | 43 | 1012.7 |
| 20260830210045 | 38 | 342 | 8.0 | 19.3 | 0.00 | 0.00 | 0.00 | 43 | 1012.6 |
| 20260830205541 | 38 | 300 | 4.8 | 9.7 | 0.00 | 0.00 | 0.00 | 44 | 1012.7 |
| 20260830205036 | 38 | 359 | 4.8 | 12.9 | 0.00 | 0.00 | 0.00 | 40 | 1012.8 |
| 20260830204756 | 38 | 110 | 3.2 | 12.9 | 0.00 | 0.00 | 0.00 | 40 | 1012.9 |
| 20260830204618 | 38 | 293 | 3.2 | 14.5 | 0.00 | 0.00 | 0.00 | 40 | 1013.1 |
| 20260830204029 | 39 | 318 | 6.4 | 14.5 | 0.00 | 0.00 | 0.00 | 40 | 1013.0 |
| 20260830203530 | 39 | 269 | 9.7 | 14.5 | 0.00 | 0.00 | 0.00 | 40 | 1013.0 |
| 20260830203059 | 38 | 222 | 3.2 | 16.1 | 0.00 | 0.00 | 0.00 | 40 | 1013.4 |
| 20260830203029 | 39 | 288 | 3.2 | 8.0 | 0.00 | 0.00 | 0.00 | 40 | 1013.2 |
| 20260830202529 | 38 | 252 | 3.2 | 12.9 | 0.00 | 0.00 | 0.00 | 39 | 1013.3 |
| 20260830202028 | 39 | 44 | 6.4 | 14.5 | 0.00 | 0.00 | 0.00 | 39 | 1013.5 |
| 20260830201630 | 39 | 217 | 3.2 | 12.9 | 0.00 | 0.00 | 0.00 | 39 | 1013.6 |
| 20260830201529 | 39 | 252 | 3.2 | 14.5 | 0.00 | 0.00 | 0.00 | 39 | 1013.4 |
| 20260830201029 | 39 | 283 | 4.8 | 11.3 | 0.00 | 0.00 | 0.00 | 40 | 1013.6 |
| 20260830200526 | 39 | 98 | 3.2 | 11.3 | 0.00 | 0.00 | 0.00 | 39 | 1013.6 |
| 20260830200021 | 39 | 356 | 4.8 | 12.9 | 0.00 | 0.00 | 0.00 | 40 | 1013.7 |
| 20260830195516 | 39 | 195 | 6.4 | 11.3 | 0.00 | 0.00 | 0.00 | 39 | 1013.7 |
| 20260830195011 | 39 | 296 | 4.8 | 12.9 | 0.00 | 0.00 | 0.00 | 40 | 1014.0 |
| 20260830194602 | 39 | 262 | 4.8 | 12.9 | 0.00 | 0.00 | 0.00 | 39 | 1014.4 |
| 20260830194507 | 39 | 338 | 4.8 | 14.5 | 0.00 | 0.00 | 0.00 | 39 | 1014.1 |
| 20260830194224 | 39 | 167 | 6.4 | 14.5 | 0.00 | 0.00 | 0.00 | 39 | 1014.3 |
| 20260830193502 | 38 | 137 | 3.2 | 11.3 | 0.00 | 0.00 | 0.00 | 41 | 1014.2 |
| 20260830193058 | 38 | 178 | 3.2 | 11.3 | 0.00 | 0.00 | 0.00 | 39 | 1014.5 |
| 20260830193002 | 38 | 181 | 3.2 | 12.9 | 0.00 | 0.00 | 0.00 | 42 | 1014.4 |
| 20260830192729 | 38 | 139 | 6.4 | 12.9 | 0.00 | 0.00 | 0.00 | 42 | 1014.6 |
| 20260830192002 | 38 | 355 | 4.8 | 14.5 | 0.00 | 0.00 | 0.00 | 41 | 1014.6 |
| 20260830191628 | 38 | 213 | 3.2 | 14.5 | 0.00 | 0.00 | 0.00 | 40 | 1015.0 |
| 20260830191502 | 38 | 8 | 3.2 | 14.5 | 0.00 | 0.00 | 0.00 | 40 | 1014.8 |
| 20260830191002 | 38 | 72 | 4.8 | 12.9 | 0.00 | 0.00 | 0.00 | 43 | 1014.9 |
| 20260830190503 | 38 | 221 | 3.2 | 11.3 | 0.00 | 0.00 | 0.00 | 41 | 1015.0 |
| 20260830190108 | 38 | 246 | 3.2 | 14.5 | 0.00 | 0.00 | 0.00 | 40 | 1015.1 |
| 20260830190003 | 38 | 130 | 4.8 | 14.5 | 0.00 | 0.00 | 0.00 | 40 | 1015.1 |
| 20260830185503 | 38 | 131 | 9.7 | 14.5 | 0.00 | 0.00 | 0.00 | 42 | 1015.1 |
| 20260830185002 | 38 | 79 | 4.8 | 14.5 | 0.00 | 0.00 | 0.00 | 42 | 1015.2 |
| 20260830184604 | 37 | 170 | 4.8 | 12.9 | 0.00 | 0.00 | 0.00 | 45 | 1015.4 |
| 20260830184502 | 37 | 191 | 6.4 | 14.5 | 0.00 | 0.00 | 0.00 | 43 | 1015.2 |
| 20260830184002 | 38 | 276 | 4.8 | 14.5 | 0.00 | 0.00 | 0.00 | 42 | 1015.4 |
| 20260830183502 | 37 | 233 | 4.8 | 16.1 | 0.00 | 0.00 | 0.00 | 44 | 1015.4 |
| 20260830183056 | 37 | 262 | 6.4 | 14.5 | 0.00 | 0.00 | 0.00 | 44 | 1015.6 |
| 20260830183002 | 37 | 61 | 6.4 | 16.1 | 0.00 | 0.00 | 0.00 | 44 | 1015.4 |
| 20260830182502 | 37 | 238 | 8.0 | 14.5 | 0.00 | 0.00 | 0.00 | 47 | 1015.7 |
| 20260830182002 | 37 | 89 | 6.4 | 14.5 | 0.00 | 0.00 | 0.00 | 46 | 1015.7 |
| 20260830181554 | 37 | 240 | 4.8 | 20.9 | 0.00 | 0.00 | 0.00 | 46 | 1016.0 |
| 20260830181500 | 37 | 60 | 6.4 | 16.1 | 0.00 | 0.00 | 0.00 | 46 | 1015.8 |
| 20260830181240 | 37 | 271 | 8.0 | 22.5 | 0.00 | 0.00 | 0.00 | 48 | 1015.9 |
| 20260830180501 | 37 | 286 | 6.4 | 22.5 | 0.00 | 0.00 | 0.00 | 46 | 1016.0 |
| 20260830180056 | 36 | 125 | 6.4 | 19.3 | 0.00 | 0.00 | 0.00 | 46 | 1016.2 |
| 20260830180001 | 37 | 56 | 8.0 | 20.9 | 0.00 | 0.00 | 0.00 | 47 | 1016.0 |
| 20260830175501 | 37 | 291 | 4.8 | 16.1 | 0.00 | 0.00 | 0.00 | 47 | 1016.0 |
| 20260830175219 | 37 | 340 | 3.2 | 16.1 | 0.00 | 0.00 | 0.00 | 48 | 1016.1 |
| 20260830174601 | 36 | 127 | 3.2 | 12.9 | 0.00 | 0.00 | 0.00 | 47 | 1016.3 |
| 20260830174458 | 36 | 50 | 4.8 | 12.9 | 0.00 | 0.00 | 0.00 | 50 | 1016.2 |
| 20260830174216 | 36 | 344 | 6.4 | 14.5 | 0.00 | 0.00 | 0.00 | 48 | 1016.3 |
| 20260830173450 | 36 | 70 | 6.4 | 14.5 | 0.00 | 0.00 | 0.00 | 48 | 1016.3 |
| 20260830173055 | 36 | 331 | 3.2 | 17.7 | 0.00 | 0.00 | 0.00 | 51 | 1016.5 |
| 20260830172946 | 36 | 309 | 3.2 | 19.3 | 0.00 | 0.00 | 0.00 | 52 | 1016.4 |
| 20260830172703 | 36 | 150 | 6.4 | 19.3 | 0.00 | 0.00 | 0.00 | 50 | 1016.7 |
| 20260830171937 | 36 | 45 | 6.4 | 17.7 | 0.00 | 0.00 | 0.00 | 51 | 1016.7 |
| 20260830171553 | 35 | 265 | 4.8 | 16.1 | 0.00 | 0.00 | 0.00 | 52 | 1016.8 |
| 20260830171434 | 36 | 257 | 6.4 | 14.5 | 0.00 | 0.00 | 0.00 | 52 | 1016.7 |
| 20260830171150 | 35 | 284 | 6.4 | 14.5 | 0.00 | 0.00 | 0.00 | 53 | 1016.8 |
| 20260830170429 | 35 | 266 | 6.4 | 11.3 | 0.00 | 0.00 | 0.00 | 54 | 1016.7 |
| 20260830165929 | 35 | 300 | 4.8 | 12.9 | 0.00 | 0.00 | 0.00 | 56 | 1016.7 |
| 20260830165429 | 35 | 212 | 4.8 | 14.5 | 0.00 | 0.00 | 0.00 | 54 | 1016.9 |
| 20260830164928 | 35 | 235 | 6.4 | 14.5 | 0.00 | 0.00 | 0.00 | 55 | 1016.9 |
| 20260830164553 | 35 | 69 | 4.8 | 16.1 | 0.00 | 0.00 | 0.00 | 54 | 1017.2 |
| 20260830164428 | 35 | 28 | 4.8 | 14.5 | 0.00 | 0.00 | 0.00 | 54 | 1016.9 |
| 20260830163928 | 34 | 207 | 6.4 | 14.5 | 0.00 | 0.00 | 0.00 | 58 | 1017.0 |
| 20260830163429 | 35 | 302 | 8.0 | 12.9 | 0.00 | 0.00 | 0.00 | 56 | 1016.9 |
| 20260830163101 | 34 | 2 | 3.2 | 16.1 | 0.00 | 0.00 | 0.00 | 59 | 1017.2 |
| 20260830162928 | 34 | 264 | 4.8 | 17.7 | 0.00 | 0.00 | 0.00 | 58 | 1016.9 |
| 20260830162428 | 34 | 316 | 4.8 | 17.7 | 0.00 | 0.00 | 0.00 | 58 | 1017.0 |
| 20260830161931 | 34 | 46 | 6.4 | 9.7 | 0.00 | 0.00 | 0.00 | 59 | 1017.1 |
| 20260830161605 | 33 | 152 | 4.8 | 11.3 | 0.00 | 0.00 | 0.00 | 59 | 1017.4 |
| 20260830161429 | 34 | 285 | 4.8 | 9.7 | 0.00 | 0.00 | 0.00 | 60 | 1017.1 |
| 20260830160928 | 33 | 265 | 6.4 | 11.3 | 0.00 | 0.00 | 0.00 | 60 | 1017.2 |
| 20260830160651 | 33 | 33 | 4.8 | 12.9 | 0.00 | 0.00 | 0.00 | 62 | 1017.2 |
| 20260830160157 | 33 | 201 | 8.0 | 16.1 | 0.00 | 0.00 | 0.00 | 63 | 1017.2 |
| 20260830160057 | 33 | 224 | 6.4 | 16.1 | 0.00 | 0.00 | 0.00 | 62 | 1017.4 |
| 20260830155429 | 33 | 354 | 4.8 | 17.7 | 0.00 | 0.00 | 0.00 | 65 | 1017.2 |
| 20260830154930 | 32 | 1 | 6.4 | 17.7 | 0.00 | 0.00 | 0.00 | 64 | 1017.3 |
| 20260830154609 | 32 | 127 | 4.8 | 12.9 | 0.00 | 0.00 | 0.00 | 66 | 1017.5 |
| 20260830154428 | 32 | 243 | 8.0 | 14.5 | 0.00 | 0.00 | 0.00 | 65 | 1017.3 |
| 20260830153929 | 32 | 229 | 4.8 | 14.5 | 0.00 | 0.00 | 0.00 | 67 | 1017.2 |
| 20260830153649 | 32 | 11 | 3.2 | 16.1 | 0.00 | 0.00 | 0.00 | 68 | 1017.2 |
| 20260830153103 | 31 | 321 | 4.8 | 17.7 | 0.00 | 0.00 | 0.00 | 67 | 1017.3 |
| 20260830152929 | 32 | 338 | 6.4 | 16.1 | 0.00 | 0.00 | 0.00 | 68 | 1017.1 |
| 20260830152429 | 31 | 191 | 4.8 | 16.1 | 0.00 | 0.00 | 0.00 | 70 | 1017.1 |
| 20260830151929 | 31 | 291 | 8.0 | 16.1 | 0.00 | 0.00 | 0.00 | 69 | 1017.1 |
| 20260830151556 | 31 | 42 | 4.8 | 14.5 | 0.00 | 0.00 | 0.00 | 70 | 1017.2 |
| 20260830151428 | 31 | 86 | 4.8 | 14.5 | 0.00 | 0.00 | 0.00 | 71 | 1016.9 |
| 20260830150929 | 31 | 285 | 6.4 | 14.5 | 0.00 | 0.00 | 0.00 | 71 | 1016.9 |
| 20260830150429 | 31 | 281 | 4.8 | 14.5 | 0.00 | 0.00 | 0.00 | 73 | 1017.0 |
| 20260830150106 | 31 | 356 | 3.2 | 14.5 | 0.00 | 0.00 | 0.00 | 73 | 1017.3 |
| 20260830145929 | 31 | 216 | 3.2 | 12.9 | 0.00 | 0.00 | 0.00 | 75 | 1017.1 |
| 20260830145429 | 30 | 289 | 8.0 | 12.9 | 0.00 | 0.00 | 0.00 | 75 | 1017.0 |
| 20260830144929 | 30 | 67 | 6.4 | 11.3 | 0.00 | 0.00 | 0.00 | 75 | 1016.9 |
| 20260830144612 | 30 | 213 | 3.2 | 12.9 | 0.00 | 0.00 | 0.00 | 75 | 1017.2 |
| 20260830144429 | 30 | 44 | 3.2 | 14.5 | 0.00 | 0.00 | 0.00 | 76 | 1016.9 |
| 20260830144413 | 30 | 285 | 4.8 | 14.5 | 0.00 | 0.00 | 0.00 | 76 | 1016.9 |
| 20260830143430 | 30 | 281 | 4.8 | 12.9 | 0.00 | 0.00 | 0.00 | 77 | 1016.9 |
| 20260830143100 | 30 | 281 | 1.6 | 14.5 | 0.00 | 0.00 | 0.00 | 78 | 1016.9 |
| 20260830142929 | 30 | 139 | 3.2 | 14.5 | 0.00 | 0.00 | 0.00 | 78 | 1016.7 |
| 20260830142428 | 30 | 133 | 4.8 | 14.5 | 0.00 | 0.00 | 0.00 | 79 | 1016.7 |
| 20260830141929 | 30 | 230 | 4.8 | 12.9 | 0.00 | 0.00 | 0.00 | 80 | 1016.5 |
| 20260830141555 | 29 | 160 | 3.2 | 6.4 | 0.00 | 0.00 | 0.00 | 80 | 1016.7 |
| 20260830141428 | 29 | 284 | 4.8 | 8.0 | 0.00 | 0.00 | 0.00 | 80 | 1016.6 |
| 20260830140929 | 29 | 146 | 4.8 | 9.7 | 0.00 | 0.00 | 0.00 | 81 | 1016.7 |
| 20260830140702 | 29 | 283 | 3.2 | 9.7 | 0.00 | 0.00 | 0.00 | 81 | 1016.6 |
| 20260830135929 | 28 | 295 | 3.2 | 9.7 | 0.00 | 0.00 | 0.00 | 83 | 1016.7 |
| 20260830135429 | 28 | 314 | 3.2 | 8.0 | 0.00 | 0.00 | 0.00 | 83 | 1016.6 |
| 20260830134929 | 28 | 350 | 1.6 | 11.3 | 0.00 | 0.00 | 0.00 | 84 | 1016.7 |
| 20260830134650 | 28 | 331 | 4.8 | 11.3 | 0.00 | 0.00 | 0.00 | 83 | 1016.6 |
| 20260830134559 | 28 | 326 | 4.8 | 9.7 | 0.00 | 0.00 | 0.00 | 83 | 1016.8 |
| 20260830133929 | 28 | 101 | 4.8 | 9.7 | 0.00 | 0.00 | 0.00 | 84 | 1016.5 |
| 20260830133430 | 28 | 333 | 3.2 | 8.0 | 0.00 | 0.00 | 0.00 | 84 | 1016.6 |
| 20260830133102 | 28 | 262 | 1.6 | 8.0 | 0.00 | 0.00 | 0.00 | 83 | 1016.7 |
| 20260830132929 | 28 | 35 | 3.2 | 8.0 | 0.00 | 0.00 | 0.00 | 84 | 1016.4 |
| 20260830132428 | 28 | 270 | 1.6 | 8.0 | 0.00 | 0.00 | 0.00 | 84 | 1016.4 |
| 20260830131929 | 28 | 225 | 1.6 | 9.7 | 0.00 | 0.00 | 0.00 | 84 | 1016.6 |
| 20260830131603 | 28 | 13 | 3.2 | 9.7 | 0.00 | 0.00 | 0.00 | 84 | 1016.6 |
| 20260830131429 | 28 | 148 | 3.2 | 9.7 | 0.00 | 0.00 | 0.00 | 84 | 1016.5 |
| 20260830130928 | 27 | 296 | 3.2 | 8.0 | 0.00 | 0.00 | 0.00 | 85 | 1016.4 |
| 20260830130429 | 27 | 290 | 3.2 | 8.0 | 0.00 | 0.00 | 0.00 | 86 | 1016.4 |
| 20260830130117 | 27 | 72 | 3.2 | 8.0 | 0.00 | 0.00 | 0.00 | 85 | 1016.5 |
| 20260830125930 | 27 | 92 | 3.2 | 8.0 | 0.00 | 0.00 | 0.00 | 86 | 1016.4 |
| 20260830125429 | 27 | 231 | 4.8 | 8.0 | 0.00 | 0.00 | 0.00 | 86 | 1016.3 |
| 20260830124929 | 27 | 252 | 4.8 | 8.0 | 0.00 | 0.00 | 0.00 | 87 | 1016.3 |
| 20260830124558 | 27 | 344 | 3.2 | 6.4 | 0.00 | 0.00 | 0.00 | 86 | 1016.5 |
| 20260830124428 | 27 | 173 | 3.2 | 6.4 | 0.00 | 0.00 | 0.00 | 87 | 1016.2 |
| 20260830123928 | 27 | 300 | 3.2 | 8.0 | 0.00 | 0.00 | 0.00 | 87 | 1016.2 |
| 20260830123429 | 27 | 293 | 4.8 | 8.0 | 0.00 | 0.00 | 0.00 | 87 | 1016.1 |
| 20260830123100 | 26 | 249 | 3.2 | 6.4 | 0.00 | 0.00 | 0.00 | 87 | 1016.2 |
| 20260830122929 | 27 | 44 | 3.2 | 6.4 | 0.00 | 0.00 | 0.00 | 87 | 1016.1 |
| 20260830122429 | 26 | 280 | 3.2 | 6.4 | 0.00 | 0.00 | 0.00 | 87 | 1016.0 |
| 20260830121929 | 27 | 236 | 3.2 | 6.4 | 0.00 | 0.00 | 0.00 | 87 | 1015.9 |
| 20260830121605 | 26 | 201 | 1.6 | 0.0 | 0.00 | 0.00 | 0.00 | 1016.3 | |
| 20260830121429 | 27 | 323 | 3.2 | 8.0 | 0.00 | 0.00 | 0.00 | 87 | 1016.0 |
| 20260830120929 | 27 | 72 | 4.8 | 8.0 | 0.00 | 0.00 | 0.00 | 87 | 1016.0 |
| 20260830120444 | 27 | 274 | 3.2 | 8.0 | 0.00 | 0.00 | 0.00 | 87 | 1015.9 |
| 20260830120120 | 26 | 187 | 3.2 | 8.0 | 0.00 | 0.00 | 0.00 | 86 | 1016.1 |
| 20260830115930 | 27 | 198 | 4.8 | 8.0 | 0.00 | 0.00 | 0.00 | 87 | 1015.8 |
| 20260830115653 | 27 | 159 | 4.8 | 8.0 | 0.00 | 0.00 | 0.00 | 87 | 1015.9 |
| 20260830115420 | 27 | 198 | 3.2 | 8.0 | 0.00 | 0.00 | 0.00 | 87 | 1015.9 |
| 20260830114604 | 26 | 203 | 1.6 | 4.8 | 0.00 | 0.00 | 0.00 | 87 | 1016.0 |
| 20260830114430 | 27 | 128 | 3.2 | 4.8 | 0.00 | 0.00 | 0.00 | 87 | 1015.8 |
| 20260830113942 | 27 | 148 | 1.6 | 4.8 | 0.00 | 0.00 | 0.00 | 87 | 1015.9 |
| 20260830113425 | 27 | 221 | 3.2 | 4.8 | 0.00 | 0.00 | 0.00 | 87 | 1016.0 |
| 20260830113052 | 26 | 247 | 1.6 | 6.4 | 0.00 | 0.00 | 0.00 | 87 | 1016.0 |
| 20260830112921 | 27 | 345 | 3.2 | 6.4 | 0.00 | 0.00 | 0.00 | 87 | 1015.8 |
| 20260830112417 | 27 | 311 | 3.2 | 6.4 | 0.00 | 0.00 | 0.00 | 87 | 1015.9 |
| 20260830111912 | 27 | 65 | 3.2 | 6.4 | 0.00 | 0.00 | 0.00 | 87 | 1015.9 |
| 20260830111603 | 27 | 235 | 1.6 | 4.8 | 0.00 | 0.00 | 0.00 | 86 | 1016.3 |
| 20260830111408 | 27 | 221 | 3.2 | 6.4 | 0.00 | 0.00 | 0.00 | 87 | 1016.0 |
| 20260830110904 | 27 | 86 | 1.6 | 6.4 | 0.00 | 0.00 | 0.00 | 87 | 1015.9 |
| 20260830110403 | 27 | 104 | 3.2 | 6.4 | 0.00 | 0.00 | 0.00 | 87 | 1015.9 |
| 20260830105904 | 27 | 201 | 1.6 | 4.8 | 0.00 | 0.00 | 0.00 | 87 | 1015.9 |
| 20260830105404 | 27 | 278 | 1.6 | 4.8 | 0.00 | 0.00 | 0.00 | 87 | 1015.9 |
| 20260830104902 | 27 | 228 | 1.6 | 4.8 | 0.00 | 0.00 | 0.00 | 87 | 1015.8 |
| 20260830104618 | 27 | 166 | 1.6 | 6.4 | 0.00 | 0.00 | 0.00 | 86 | 1015.8 |
| 20260830104606 | 27 | 133 | 1.6 | 6.4 | 0.00 | 0.00 | 0.00 | 86 | 1016.0 |
| 20260830103855 | 27 | 81 | 1.6 | 6.4 | 0.00 | 0.00 | 0.00 | 86 | 1015.6 |
| 20260830103351 | 27 | 230 | 1.6 | 6.4 | 0.00 | 0.00 | 0.00 | 86 | 1015.7 |
| 20260830103104 | 27 | 267 | 1.6 | 6.4 | 0.00 | 0.00 | 0.00 | 86 | 1015.9 |
| 20260830102847 | 27 | 210 | 3.2 | 4.8 | 0.00 | 0.00 | 0.00 | 86 | 1015.7 |
| 20260830102343 | 27 | 198 | 1.6 | 4.8 | 0.00 | 0.00 | 0.00 | 86 | 1015.6 |
| 20260830101840 | 27 | 347 | 0.0 | 6.4 | 0.00 | 0.00 | 0.00 | 86 | 1015.7 |
| 20260830101821 | 27 | 113 | 1.6 | 6.4 | 0.00 | 0.00 | 0.00 | 86 | 1015.8 |
| 20260830101623 | 27 | 230 | 1.6 | 4.8 | 0.00 | 0.00 | 0.00 | 85 | 1016.0 |
| 20260830100831 | 27 | 274 | 1.6 | 4.8 | 0.00 | 0.00 | 0.00 | 86 | 1015.7 |
| 20260830100330 | 27 | 193 | 1.6 | 3.2 | 0.00 | 0.00 | 0.00 | 86 | 1015.8 |
| 20260830095830 | 27 | 250 | 1.6 | 3.2 | 0.00 | 0.00 | 0.00 | 86 | 1015.8 |
| 20260830095329 | 27 | 330 | 1.6 | 3.2 | 0.00 | 0.00 | 0.00 | 86 | 1015.8 |
| 20260830094829 | 27 | 274 | 0.0 | 6.4 | 0.00 | 0.00 | 0.00 | 86 | 1015.8 |
| 20260830094608 | 27 | 255 | 0.0 | 6.4 | 0.00 | 0.00 | 0.00 | 85 | 1016.0 |
| 20260830094329 | 27 | 217 | 1.6 | 6.4 | 0.00 | 0.00 | 0.00 | 86 | 1015.7 |
| 20260830093828 | 27 | 104 | 1.6 | 6.4 | 0.00 | 0.00 | 0.00 | 86 | 1015.8 |
| 20260830093328 | 27 | 37 | 1.6 | 6.4 | 0.00 | 0.00 | 0.00 | 85 | 1015.8 |
| 20260830093312 | 27 | 82 | 1.6 | 6.4 | 0.00 | 0.00 | 0.00 | 85 | 1015.7 |
| 20260830093102 | 27 | 264 | 1.6 | 8.0 | 0.00 | 0.00 | 0.00 | 85 | 1016.0 |
| 20260830092329 | 27 | 82 | 1.6 | 4.8 | 0.00 | 0.00 | 0.00 | 85 | 1015.9 |
| 20260830091829 | 27 | 285 | 1.6 | 9.7 | 0.00 | 0.00 | 0.00 | 85 | 1016.0 |
| 20260830091558 | 27 | 241 | 0.0 | 9.7 | 0.00 | 0.00 | 0.00 | 85 | 1016.2 |
| 20260830091329 | 27 | 203 | 1.6 | 9.7 | 0.00 | 0.00 | 0.00 | 85 | 1016.0 |
| 20260830090829 | 27 | 178 | 1.6 | 6.4 | 0.00 | 0.00 | 0.00 | 85 | 1016.0 |
| 20260830090329 | 27 | 207 | 3.2 | 8.0 | 0.00 | 0.00 | 0.00 | 85 | 1016.1 |
| 20260830090055 | 27 | 0 | 1.6 | 6.4 | 0.00 | 0.00 | 0.00 | 84 | 1016.3 |
| 20260830085831 | 27 | 181 | 3.2 | 8.0 | 0.00 | 0.00 | 0.00 | 85 | 1016.0 |
| 20260830085537 | 27 | 271 | 3.2 | 6.4 | 0.00 | 0.00 | 0.00 | 85 | 1016.1 |
| 20260830085524 | 27 | 193 | 3.2 | 6.4 | 0.00 | 0.00 | 0.00 | 85 | 1016.2 |
| 20260830084554 | 27 | 207 | 1.6 | 9.7 | 0.00 | 0.00 | 0.00 | 84 | 1016.4 |
| 20260830084328 | 27 | 47 | 0.0 | 9.7 | 0.00 | 0.00 | 0.00 | 85 | 1016.1 |
| 20260830083829 | 27 | 71 | 1.6 | 9.7 | 0.00 | 0.00 | 0.00 | 85 | 1016.2 |
| 20260830083328 | 27 | 81 | 3.2 | 8.0 | 0.00 | 0.00 | 0.00 | 85 | 1016.3 |
| 20260830083109 | 27 | 219 | 0.0 | 8.0 | 0.00 | 0.00 | 0.00 | 84 | 1016.6 |
| 20260830082828 | 27 | 161 | 1.6 | 8.0 | 0.00 | 0.00 | 0.00 | 84 | 1016.3 |
| 20260830082549 | 27 | 129 | 3.2 | 9.7 | 0.00 | 0.00 | 0.00 | 84 | 1016.3 |
| 20260830082050 | 27 | 269 | 3.2 | 9.7 | 0.00 | 0.00 | 0.00 | 84 | 1016.4 |
| 20260830081558 | 27 | 239 | 0.0 | 6.4 | 0.00 | 0.00 | 0.00 | 84 | 1016.6 |
| 20260830081329 | 28 | 285 | 1.6 | 6.4 | 0.00 | 0.00 | 0.00 | 84 | 1016.4 |
| 20260830080828 | 28 | 43 | 3.2 | 11.3 | 0.00 | 0.00 | 0.00 | 84 | 1016.3 |
| 20260830080328 | 28 | 48 | 3.2 | 11.3 | 0.00 | 0.00 | 0.00 | 84 | 1016.4 |
| 20260830080055 | 27 | 231 | 1.6 | 8.0 | 0.00 | 0.00 | 0.00 | 84 | 1016.6 |
| 20260830075831 | 28 | 320 | 3.2 | 9.7 | 0.00 | 0.00 | 0.00 | 84 | 1016.3 |
| 20260830075330 | 28 | 330 | 3.2 | 8.0 | 0.00 | 0.00 | 0.00 | 84 | 1016.4 |
| 20260830074830 | 28 | 128 | 3.2 | 12.9 | 0.00 | 0.00 | 0.00 | 84 | 1016.5 |
| 20260830074556 | 28 | 53 | 4.8 | 12.9 | 0.00 | 0.00 | 0.00 | 84 | 1016.7 |
| 20260830074554 | 27 | 15 | 1.6 | 12.9 | 0.00 | 0.00 | 0.00 | 83 | 1016.7 |
| 20260830073830 | 28 | 314 | 1.6 | 8.0 | 0.00 | 0.00 | 0.00 | 84 | 1016.7 |
| 20260830073330 | 28 | 233 | 4.8 | 8.0 | 0.00 | 0.00 | 0.00 | 84 | 1016.7 |
| 20260830073102 | 27 | 0 | 0.0 | 8.0 | 0.00 | 0.00 | 0.00 | 83 | 1017.0 |
| 20260830072825 | 28 | 180 | 1.6 | 9.7 | 0.00 | 0.00 | 0.00 | 84 | 1016.7 |
| 20260830072321 | 28 | 207 | 1.6 | 14.5 | 0.00 | 0.00 | 0.00 | 84 | 1016.7 |
| 20260830071818 | 28 | 127 | 1.6 | 14.5 | 0.00 | 0.00 | 0.00 | 84 | 1016.8 |
| 20260830071608 | 27 | 233 | 1.6 | 4.8 | 0.00 | 0.00 | 0.00 | 83 | 1017.1 |
| 20260830071314 | 28 | 359 | 1.6 | 4.8 | 0.00 | 0.00 | 0.00 | 84 | 1016.8 |
| 20260830070811 | 28 | 300 | 1.6 | 8.0 | 0.00 | 0.00 | 0.00 | 84 | 1016.9 |
| 20260830070307 | 28 | 259 | 3.2 | 8.0 | 0.00 | 0.00 | 0.00 | 84 | 1016.9 |
| 20260830070110 | 28 | 243 | 1.6 | 4.8 | 0.00 | 0.00 | 0.00 | 83 | 1017.1 |
| 20260830065803 | 28 | 288 | 1.6 | 6.4 | 0.00 | 0.00 | 0.00 | 84 | 1017.0 |
| 20260830065305 | 28 | 23 | 0.0 | 4.8 | 0.00 | 0.00 | 0.00 | 84 | 1016.9 |
| 20260830064802 | 28 | 108 | 1.6 | 9.7 | 0.00 | 0.00 | 0.00 | 84 | 1016.9 |
| 20260830064554 | 28 | 116 | 1.6 | 9.7 | 0.00 | 0.00 | 0.00 | 83 | 1017.2 |
| 20260830064527 | 28 | 194 | 1.6 | 9.7 | 0.00 | 0.00 | 0.00 | 84 | 1017.0 |
| 20260830063815 | 28 | 281 | 1.6 | 6.4 | 0.00 | 0.00 | 0.00 | 84 | 1017.0 |
| 20260830063302 | 28 | 145 | 3.2 | 6.4 | 0.00 | 0.00 | 0.00 | 83 | 1016.9 |
| 20260830063100 | 28 | 235 | 0.0 | 9.7 | 0.00 | 0.00 | 0.00 | 83 | 1017.3 |
| 20260830062802 | 28 | 353 | 3.2 | 9.7 | 0.00 | 0.00 | 0.00 | 83 | 1017.0 |
| 20260830062305 | 28 | 240 | 3.2 | 9.7 | 0.00 | 0.00 | 0.00 | 83 | 1017.0 |
| 20260830062031 | 28 | 194 | 3.2 | 9.7 | 0.00 | 0.00 | 0.00 | 83 | 1017.1 |
| 20260830061557 | 28 | 92 | 1.6 | 8.0 | 0.00 | 0.00 | 0.00 | 82 | 1017.3 |
| 20260830061315 | 28 | 356 | 3.2 | 8.0 | 0.00 | 0.00 | 0.00 | 83 | 1017.2 |
| 20260830060803 | 28 | 176 | 1.6 | 12.9 | 0.00 | 0.00 | 0.00 | 82 | 1017.2 |
| 20260830060257 | 28 | 158 | 6.4 | 12.9 | 0.00 | 0.00 | 0.00 | 82 | 1017.2 |
| 20260830055757 | 28 | 354 | 3.2 | 9.7 | 0.00 | 0.00 | 0.00 | 82 | 1017.0 |
| 20260830055252 | 28 | 41 | 3.2 | 14.5 | 0.00 | 0.00 | 0.00 | 82 | 1017.2 |
| 20260830054747 | 28 | 154 | 4.8 | 14.5 | 0.00 | 0.00 | 0.00 | 81 | 1017.2 |
| 20260830054557 | 28 | 276 | 1.6 | 8.0 | 0.00 | 0.00 | 0.00 | 80 | 1017.4 |
| 20260830054244 | 28 | 207 | 3.2 | 11.3 | 0.00 | 0.00 | 0.00 | 81 | 1017.3 |
| 20260830054000 | 28 | 175 | 3.2 | 11.3 | 0.00 | 0.00 | 0.00 | 80 | 1017.3 |
| 20260830053235 | 28 | 0 | 3.2 | 9.7 | 0.00 | 0.00 | 0.00 | 80 | 1017.3 |
| 20260830053056 | 28 | 231 | 3.2 | 9.7 | 0.00 | 0.00 | 0.00 | 80 | 1017.5 |
| 20260830052729 | 28 | 68 | 3.2 | 6.4 | 0.00 | 0.00 | 0.00 | 80 | 1017.4 |
| 20260830052229 | 28 | 264 | 3.2 | 6.4 | 0.00 | 0.00 | 0.00 | 80 | 1017.4 |
| 20260830051729 | 28 | 127 | 1.6 | 8.0 | 0.00 | 0.00 | 0.00 | 79 | 1017.4 |
| 20260830051601 | 28 | 224 | 1.6 | 9.7 | 0.00 | 0.00 | 0.00 | 79 | 1017.5 |
| 20260830051229 | 28 | 281 | 1.6 | 8.0 | 0.00 | 0.00 | 0.00 | 79 | 1017.4 |
| 20260830050729 | 28 | 32 | 3.2 | 8.0 | 0.00 | 0.00 | 0.00 | 79 | 1017.3 |
| 20260830050229 | 28 | 260 | 3.2 | 6.4 | 0.00 | 0.00 | 0.00 | 78 | 1017.3 |
| 20260830050105 | 28 | 309 | 1.6 | 6.4 | 0.00 | 0.00 | 0.00 | 78 | 1017.6 |
| 20260830045729 | 28 | 212 | 1.6 | 6.4 | 0.00 | 0.00 | 0.00 | 78 | 1017.3 |
| 20260830045507 | 28 | 61 | 3.2 | 8.0 | 0.00 | 0.00 | 0.00 | 78 | 1017.4 |
| 20260830044730 | 29 | 315 | 3.2 | 8.0 | 0.00 | 0.00 | 0.00 | 77 | 1017.4 |
| 20260830044609 | 28 | 303 | 1.6 | 9.7 | 0.00 | 0.00 | 0.00 | 77 | 1017.6 |
| 20260830044231 | 29 | 298 | 3.2 | 8.0 | 0.00 | 0.00 | 0.00 | 77 | 1017.3 |
| 20260830043731 | 29 | 144 | 3.2 | 8.0 | 0.00 | 0.00 | 0.00 | 77 | 1017.3 |
| 20260830043229 | 29 | 179 | 3.2 | 9.7 | 0.00 | 0.00 | 0.00 | 76 | 1017.2 |
| 20260830043053 | 28 | 163 | 3.2 | 11.3 | 0.00 | 0.00 | 0.00 | 76 | 1017.6 |
| 20260830042949 | 29 | 18 | 3.2 | 11.3 | 0.00 | 0.00 | 0.00 | 76 | 1017.2 |
| 20260830042711 | 29 | 273 | 4.8 | 11.3 | 0.00 | 0.00 | 0.00 | 75 | 1017.3 |
| 20260830041729 | 29 | 228 | 4.8 | 9.7 | 0.00 | 0.00 | 0.00 | 75 | 1017.2 |
| 20260830041608 | 29 | 269 | 3.2 | 9.7 | 0.00 | 0.00 | 0.00 | 74 | 1017.5 |
| 20260830041229 | 29 | 250 | 4.8 | 9.7 | 0.00 | 0.00 | 0.00 | 75 | 1017.3 |
| 20260830040729 | 29 | 290 | 4.8 | 9.7 | 0.00 | 0.00 | 0.00 | 74 | 1017.2 |
| 20260830040228 | 29 | 96 | 4.8 | 11.3 | 0.00 | 0.00 | 0.00 | 74 | 1017.1 |
| 20260830035729 | 29 | 304 | 6.4 | 12.9 | 0.00 | 0.00 | 0.00 | 74 | 1017.2 |
| 20260830035230 | 29 | 266 | 6.4 | 12.9 | 0.00 | 0.00 | 0.00 | 73 | 1017.2 |
| 20260830034730 | 30 | 19 | 3.2 | 9.7 | 0.00 | 0.00 | 0.00 | 73 | 1017.2 |
| 20260830034600 | 29 | 204 | 3.2 | 14.5 | 0.00 | 0.00 | 0.00 | 72 | 1017.4 |
| 20260830034230 | 30 | 317 | 4.8 | 12.9 | 0.00 | 0.00 | 0.00 | 73 | 1017.1 |
| 20260830033730 | 30 | 217 | 4.8 | 12.9 | 0.00 | 0.00 | 0.00 | 72 | 1017.1 |
| 20260830033229 | 30 | 210 | 3.2 | 14.5 | 0.00 | 0.00 | 0.00 | 72 | 1017.0 |
| 20260830033057 | 30 | 157 | 6.4 | 14.5 | 0.00 | 0.00 | 0.00 | 72 | 1017.2 |
| 20260830032728 | 30 | 238 | 6.4 | 14.5 | 0.00 | 0.00 | 0.00 | 72 | 1016.9 |
| 20260830032230 | 30 | 309 | 6.4 | 14.5 | 0.00 | 0.00 | 0.00 | 72 | 1016.9 |
| 20260830031729 | 30 | 274 | 6.4 | 14.5 | 0.00 | 0.00 | 0.00 | 71 | 1016.9 |
| 20260830031608 | 30 | 242 | 4.8 | 11.3 | 0.00 | 0.00 | 0.00 | 71 | 1017.1 |
| 20260830031229 | 30 | 321 | 3.2 | 11.3 | 0.00 | 0.00 | 0.00 | 71 | 1016.8 |
| 20260830030951 | 30 | 328 | 6.4 | 17.7 | 0.00 | 0.00 | 0.00 | 71 | 1016.7 |
| 20260830030228 | 30 | 281 | 8.0 | 17.7 | 0.00 | 0.00 | 0.00 | 70 | 1016.7 |
| 20260830030109 | 30 | 275 | 6.4 | 16.1 | 0.00 | 0.00 | 0.00 | 70 | 1016.8 |
| 20260830025728 | 30 | 74 | 8.0 | 17.7 | 0.00 | 0.00 | 0.00 | 70 | 1016.6 |
| 20260830025228 | 30 | 266 | 3.2 | 9.7 | 0.00 | 0.00 | 0.00 | 69 | 1016.4 |
| 20260830024724 | 30 | 315 | 4.8 | 16.1 | 0.00 | 0.00 | 0.00 | 69 | 1016.3 |
| 20260830024608 | 30 | 255 | 3.2 | 14.5 | 0.00 | 0.00 | 0.00 | 68 | 1016.5 |
| 20260830024218 | 30 | 258 | 9.7 | 16.1 | 0.00 | 0.00 | 0.00 | 69 | 1016.2 |
| 20260830023714 | 31 | 11 | 4.8 | 16.1 | 0.00 | 0.00 | 0.00 | 68 | 1016.2 |
| 20260830023208 | 31 | 102 | 4.8 | 14.5 | 0.00 | 0.00 | 0.00 | 68 | 1016.2 |
| 20260830023110 | 30 | 259 | 4.8 | 14.5 | 0.00 | 0.00 | 0.00 | 68 | 1016.3 |
| 20260830022705 | 31 | 113 | 6.4 | 14.5 | 0.00 | 0.00 | 0.00 | 68 | 1016.1 |